STARLINK-2693 (48461 NORAD) Tracking and Keplerian Element Data

This shows tracking and keplerian element data for the satellite.

Feedback or suggestion? Click here.




ElementValue
Catalog48461
NameSTARLINK-2693
Epoch Orbit1471
Epoch Day215.25002315
Epoch Year2021
RAAN165.904
Inclination53.0531
Eccentricity0.0001497
Argument of Perigee76.707
Mean Anonmoly38.4166
Mean Motion15.06380168
Decay Rate0.00023657
L11 48461U 21040AK 21215.25002315 .00023657 00000-0 16026-2 0 9999
L22 48461 53.0531 165.9040 0001497 76.7070 38.4166 15.06380168 14714

Live tracking and technical data element details for STARLINK-2693 (NORAD 48461). STARLINK-2693 can be tracked NOW for your location showing map with azimuth and elevation plus other details from your city location.

Track the satellite on the map from your city or location and see movement details for azimuth, elevation, latitude, longitude, range, height, and movement on the map or in text.







IsCatalogInMostPopularTable: catalog: 48461, numindb: 30
Update: records affected: 1



GetName: 48461 STARLINK-2693

Hit Count: updated at: Wed, 04 Aug 2021 00:25:24 GMT